Location: Goettingen
(51.5300°N, 9.9433°E)
Time: 19:51:02
(UTC+02:00)

X-37B - Pass Details

Date: 01 October 2021
Orbit: 385 x 389 km, 45.0° (Epoch: 13 October)

Event Time Altitude Azimuth Distance (km) Brightness Sun altitude
Exits shadow 06:16:04 13° 227° (SW) 1,234 2.6 -10.9°
Maximum altitude 06:17:20 16° 200° (SSW) 1,110 2.6 -10.7°
Drops below altitude 10° 06:19:22 10° 160° (SSE) 1,411 3.6 -10.4°
Sets 06:21:58 0° 137° (SE) 2,263 5.0 -10.0°
